Welcome to the New NWS' Forecast!
Most changes are behind the scenes, but click here for differences you might notice.
Latest weather observations around

Williamsburg-Whitley County Airport (KBYL)

Using English Units (Switch to International System of Units)
Date/ Time (EST) Wind (mph) Vis. (mi) Weather Sky Cond. Temp (°F) Rel. Humidity Wind Chill (°F) Heat Index (°F) Pressure Precip. (in)
Air Dwpt 6 hour Altimeter (inHg) Sea level (inHg) 1 hr 3 hr 6 hr
Max Min
Nov 16 15:15 SW 7 10 Clear   54 32     44%     30.07        
Nov 16 14:55 WSW 3 10 Clear   52 32     47%     30.07        
Nov 16 14:35 W 8 10 Clear   52 32     47%     30.07        
Nov 16 14:15 W 8 10 Clear   50 32     50%     30.06        
Nov 16 13:55 W 7 10 Clear   50 32     50%     30.07        
Nov 16 13:35 SW 9 10 Clear   50 32     50%     30.07        
Nov 16 13:15 SW 10 10 Clear   48 32     53% 44   30.07        
Nov 16 12:55 SW 7 10 Clear   48 32     53% 45   30.08        
Nov 16 12:35 WSW 7 10 Clear   46 32     57% 43   30.09        
Nov 16 12:15 Calm 10 Clear   46 32     57%     30.09        
Nov 16 11:55 SSW 9 10 Clear   45 32     61% 40   30.1        
Nov 16 11:35 SW 8 10 Clear   45 32     61% 40   30.1        
Nov 16 11:15 SW 8 10 Clear   43 32     65% 38   30.11        
Nov 16 10:55 SW 9 10 Clear   41 30     65% 35   30.11        
Nov 16 10:35 SW 8 10 Clear   39 28     65% 34   30.12        
Nov 16 10:15 S 3 10 Clear   37 28     70% 35   30.13        
Nov 16 09:55 Calm 10 Clear   37 28     70%     30.13        
Nov 16 09:35 S 5 10 Clear   36 28     75% 32   30.13        
Nov 16 09:15 SSE 5 10 Clear   34 28     80% 30   30.13        
Nov 16 08:55 SSE 6 10 Clear   32 28     86% 26   30.13        
Nov 16 08:35 SSE 6 10 Clear   32 28     86% 26   30.14        
Nov 16 08:15 S 5 10 Clear   32 28     86% 27   30.14        
Nov 16 07:55 Calm 10 Clear   28 28     100%     30.13        
Nov 16 07:35 Calm 10 Clear   28 28     100%     30.13        
Nov 16 07:15 Calm 10 Clear   28 28     100%     30.13        
Nov 16 06:55 Calm 10 Clear   28 28     100%     30.12        
Nov 16 06:35 Calm 10 Clear   30 28     93%     30.12        
Nov 16 06:15 Calm 10 Clear   30 28     93%     30.12        
Nov 16 05:55 Calm 10 Clear   30 28     93%     30.13        
Nov 16 05:35 Calm 10 Clear   30 28     93%     30.13        
Nov 16 05:15 Calm 10 Clear   30 28     93%     30.13        
Nov 16 04:55 Calm 10 Clear   30 28     93%     30.12        
Nov 16 04:35 Calm 10 Clear   30 27     86%     30.12        
Nov 16 04:15 Calm 10 Clear   28 27     93%     30.12        
Nov 16 03:55 Calm 10 Clear   28 27     93%     30.12        
Nov 16 03:35 Calm 10 Clear   28 27     93%     30.12        
Nov 16 03:15 Calm 10 Clear   28 27     93%     30.12        
Nov 16 02:55 Calm 10 Clear   28 27     93%     30.12        
Nov 16 02:35 Calm 10 Clear   28 27     93%     30.12        
Nov 16 02:15 Calm 10 Clear   28 27     93%     30.12        
Nov 16 01:55 Calm 10 Clear   28 27     93%     30.12        
Nov 16 01:35 Calm 10 Clear   28 27     93%     30.12        
Nov 16 01:15 Calm 10 Clear   28 27     93%     30.11        
Nov 16 00:55 Calm 10 Clear   28 27     93%     30.11        
Nov 16 00:35 Calm 10 Clear   28 27     93%     30.11        
Nov 16 00:15 Calm 10 Clear   28 27     93%     30.11        
Nov 15 23:55 Calm 10 Clear   28 27     93%     30.11        
Nov 15 23:35 Calm 10 Clear   28 27     93%     30.11        
Nov 15 23:15 Calm 10 Clear   28 27     93%     30.11        
Nov 15 22:55 Calm 10 Clear   28 27     93%     30.11        
Nov 15 22:35 Calm 10 Clear   28 27     93%     30.1        
Nov 15 22:15 Calm 10 Clear   28 27     93%     30.1        
Nov 15 21:55 Calm 10 Clear   28 27     93%     30.1        
Nov 15 21:35 Calm 10 Clear   28 27     93%     30.09        
Nov 15 21:15 Calm 10 Clear   28 28     100%     30.09        
Nov 15 20:55 Calm 9 Clear   28 28     100%     30.09        
Nov 15 20:35 Calm 1 Clear   30 30     100%     30.07        
Nov 15 20:15 Calm 10 Clear   30 28     93%     30.06        
Nov 15 19:55 Calm 9 Clear   30 30     100%     30.05        
Nov 15 19:35 Calm 7 Clear   30 30     100%     30.05        
Nov 15 19:15 Calm 8 Clear   32 32     100%     30.04        
Nov 15 18:55 Calm 10 Clear   32 32     100%     30.04        
Nov 15 18:35 Calm 5 Clear   32 32     100%     30.03        
Nov 15 18:15 Calm 7 Clear   32 32     100%     30.02        
Nov 15 17:55 Calm 1.25 Clear   32 32     100%     30.01        
Nov 15 17:35 Calm 2.5 Clear   32 32     100%     30.02        
Nov 15 17:15 WSW 8 9 Clear   32 32     100% 25   30        
Nov 15 16:55 W 8 10 Clear   32 32     100% 25   30        
Nov 15 16:35 W 7 10 Clear   32 32     100% 26   30        
Nov 15 16:15 W 7 5 Clear   32 32     100% 26   29.99        
Nov 15 15:55 W 3 4 Clear   34 34     100% 31   29.99        
Nov 15 15:35 W 7 8 Clear   34 34     100% 28   29.98        
Nov 15 15:15 W 7 5 Clear   36 36     100% 30   29.97        
Nov 15 14:55 WNW 6 5 Clear   36 36     100% 31   29.97        
Nov 15 14:35 WNW 6 4 Clear   36 36     100% 31   29.98        
Nov 15 14:15 WNW 8 1.75 Clear   36 36     100% 29   29.98        
Nov 15 13:55 WNW 10 1 Clear   37 37     100% 30   29.98        
Nov 15 13:35 WNW 8 1.25 Clear   37 37     100% 31   29.98        
Nov 15 13:15 WNW 6 1 Clear   39 39     100% 35   29.98        
Nov 15 12:55 WNW 6 1 Clear   39 39     100% 35   29.99        
Nov 15 12:35 Calm 2 Clear   39 39     100%     30        
Nov 15 12:15 W 5 1.5 Clear   39 39     100% 36   30.01        
Nov 15 11:55 Calm 3 Clear   39 39     100%     30.02        
Nov 15 11:35 Calm 1.75 Clear   39 39     100%     30.03        
Nov 15 11:15 NNW 5 0.75 Clear   39 39     100% 36   30.04        
Nov 15 10:55 Calm 1.5 Clear   39 39     100%     30.05        
Nov 15 10:35 Calm 2.5 Clear   39 39     100%     30.05        
Nov 15 10:15 Calm 3 Clear   39 39     100%     30.06        
Nov 15 09:55 Calm 4 Clear   39 39     100%     30.07        
Nov 15 09:35 Calm 5 Clear   37 37     100%     30.07        
Nov 15 09:15 SSE 3 8 Clear   37 37     100% 35   30.07        
Nov 15 08:55 Calm 4 Clear   37 37     100%     30.06        
Nov 15 08:35 Calm 5 Clear   37 37     100%     30.06        
Nov 15 08:15 Calm 3 Clear   36 36     100%     30.06        
Nov 15 07:55 E 3 5 Clear   36 36     100% 33   30.06        
Nov 15 07:35 ESE 8 4 Clear   36 36     100% 29   30.07        
Nov 15 07:15 Calm 4 Clear   36 36     100%     30.08        
Nov 15 06:55 Calm 2.5 Clear   36 36     100%     30.09        
Nov 15 06:35 Calm 3 Clear   36 36     100%     30.1        
Nov 15 06:15 Calm 3 Clear   36 36     100%     30.1        
Nov 15 05:55 Calm 3 Clear   36 36     100%     30.09        
Nov 15 05:35 Calm 3 Clear   36 36     100%     30.09        
Nov 15 05:15 Calm 5 Clear   36 36     100%     30.11        
Nov 15 04:55 Calm 3 Clear   36 36     100%     30.11        
Nov 15 04:35 Calm 1.5 Clear   36 36     100%     30.11        
Nov 15 04:15 Calm 2 Clear   36 36     100%     30.12        
Nov 15 03:55 Calm 2 Clear   36 36     100%     30.11        
Nov 15 03:35 Calm 5 Clear   36 36     100%     30.12        
Nov 15 03:15 Calm 7 Clear   36 36     100%     30.12        
Nov 15 02:55 Calm 8 Clear   36 36     100%     30.12        
Nov 15 02:35 Calm 6 Clear   36 36     100%     30.12        
Nov 15 02:15 NW 3 5 Clear   36 36     100% 33   30.12        
Nov 15 01:55 NW 5 5 Clear   36 36     100% 32   30.12        
Nov 15 01:35 NW 5 4 Clear   37 37     100% 34   30.12        
Nov 15 01:15 WNW 3 2.5 Clear   37 37     100% 35   30.12        
Nov 15 00:55 NW 5 3 Clear   37 37     100% 34   30.11        
Nov 15 00:35 NW 5 3 Clear   37 37     100% 34   30.11        
Nov 15 00:15 NNE 6 3 Clear   37 37     100% 33   30.11        
Nov 14 23:55 Calm 4 Clear   37 37     100%     30.11        
Nov 14 23:35 ENE 3 5 Clear   37 37     100% 35   30.11        
Nov 14 23:15 E 5 5 Clear   36 36     100% 32   30.12        
Nov 14 22:55 E 7 4 Clear   36 36     100% 30   30.12        
Nov 14 22:35 E 7 4 Clear   36 36     100% 30   30.14        
Nov 14 22:15 E 5 4 Clear   36 36     100% 32   30.15        
Nov 14 21:55 E 5 4 Clear   36 36     100% 32   30.16        
Nov 14 21:35 Calm 3 Clear   36 36     100%     30.17        
Nov 14 21:15 E 6 3 Clear   36 36     100% 31   30.18        
Nov 14 20:55 E 3 3 Clear   36 36     100% 33   30.19        
Nov 14 20:35 ENE 6 5 Clear   36 36     100% 31   30.2        
Nov 14 20:15 ENE 9 5 Clear   36 36     100% 29   30.19        
Nov 14 19:55 ENE 7 7 Clear   36 36     100% 30   30.21        
Nov 14 19:35 ENE 6 5 Clear   34 34     100% 29   30.22        
Nov 14 19:15 ENE 6 5 Clear   34 34     100% 29   30.23        
Nov 14 18:55 NE 5 5 Clear   34 34     100% 30   30.25        
Nov 14 18:35 NE 3 4 Clear   34 34     100% 31   30.26        
Nov 14 18:15 NE 6 4 Clear   34 34     100% 29   30.26        
Nov 14 17:55 ENE 7 3 Clear   34 34     100% 28   30.26        
Nov 14 17:35 ENE 6 5 Clear   34 34     100% 29   30.27        
Nov 14 17:15 ENE 8 5 Clear   34 34     100% 27   30.28        
Nov 14 16:55 ENE 6 5 Clear   34 34     100% 29   30.29        
Nov 14 16:35 NE 6 5 Clear   34 34     100% 29   30.29        
Nov 14 16:15 ENE 5 3 Clear   34 34     100% 30   30.3        
Nov 14 15:55 ENE 5 4 Clear   34 34     100% 30   30.3        
Nov 14 15:35 NE 6 4 Clear   34 32     93% 29   30.31        
Nov 14 15:15 ENE 6 4 Clear   34 32     93% 29   30.31        
Nov 14 14:55 ENE 6 5 Clear   36 32     87% 31   30.32        
Nov 14 14:35 NE 6 8 Clear   36 32     87% 31   30.32        
Notice The following observation data may not be complete
Nov 14 13:55   10 Clear            %              
Nov 14 13:35 NE 6 10 Clear   36 30     81% 31   30.35        
Nov 14 13:15 NE 8 10 Clear   36 30     81% 29   30.36        
Nov 14 12:55 NE 8 10 Clear   36 32     87% 29   30.37        
Nov 14 12:35 NE 10 10 Clear   36 32     87% 28   30.37        
Nov 14 12:15 NE 8 10 Clear   36 32     87% 29   30.4        
Nov 14 11:55 ENE 8 10 Clear   36 32     87% 29   30.4        
Nov 14 11:35 NE 12 10 Clear   36 32     87% 28   30.39        
Nov 14 11:15 NE 8 10 Clear   36 32     87% 29   30.42        
Nov 14 10:55 NNE 8 10 Clear   36 32     87% 29   30.41        
Nov 14 10:35 ENE 7 10 Clear   36 32     87% 30   30.41        
Nov 14 10:15 NE 10 10 Clear   36 32     87% 28   30.42        
Nov 14 09:55 NE 10 10 Clear   36 32     87% 28   30.42        
Nov 14 09:35 NE 13 10 Clear   36 32     87% 27   30.4        
Nov 14 09:15 NE 6 10 Clear   36 32     87% 31   30.41        
Nov 14 08:55 NE 6 10 Clear   36 32     87% 31   30.42        
Nov 14 08:35 ENE 6 10 Clear   34 32     93% 29   30.42        
Nov 14 08:15 ENE 8 10 Clear   34 32     93% 27   30.41        
Nov 14 07:55 ENE 6 10 Clear   34 32     93% 29   30.41        
Nov 14 07:35 ENE 5 10 Clear   34 32     93% 30   30.41        
Nov 14 07:15 ENE 6 10 Clear   34 32     93% 29   30.39        
Nov 14 06:55 ENE 6 10 Clear   34 32     93% 29   30.39        
Nov 14 06:35 NE 6 10 Clear   34 32     93% 29   30.4        
Nov 14 06:15 NE 7 10 Clear   34 32     93% 28   30.39        
Nov 14 05:55 ENE 5 10 Clear   34 32     93% 30   30.4        
Nov 14 05:35 NE 6 10 Clear   34 32     93% 29   30.4        
Nov 14 05:15 NE 7 10 Clear   34 32     93% 28   30.39        
Nov 14 04:55 NE 8 10 Clear   34 32     93% 27   30.39        
Nov 14 04:35 NE 7 10 Clear   34 32     93% 28   30.38        
Nov 14 04:15 ENE 9 10 Clear   34 32     93% 26   30.38        
Nov 14 03:55 NE 9 10 Clear   34 32     93% 26   30.38        
Nov 14 03:35 NE 8 10 Clear   34 32     93% 27   30.38        
Nov 14 03:15 NNE 10 10 Clear   34 32     93% 26   30.38        
Nov 14 02:55 NNE 8 9 Clear   34 32     93% 27   30.39        
Nov 14 02:35 NNE 8 9 Clear   34 32     93% 27   30.38        
Nov 14 02:15 NE 8 9 Clear   34 32     93% 27   30.38        
Nov 14 01:55 NNE 9 7 Clear   34 32     93% 26   30.38        
Nov 14 01:35 NNE 8 5 Clear   34 32     93% 27   30.38        
Nov 14 01:15 NNE 8 7 Clear   34 32     93% 27   30.37        
Nov 14 00:55 NNE 9 6 Clear   34 32     93% 26   30.38        
Nov 14 00:35 NNE 9 7 Clear   34 32     93% 26   30.37        
Nov 14 00:15 N 8 5 Clear   34 34     100% 27   30.37        
Nov 13 23:55 N 7 4 Clear   36 36     100% 30   30.37        
Nov 13 23:35 N 6 5 Clear   36 36     100% 31   30.37        
Nov 13 23:15 NNE 7 5 Clear   36 36     100% 30   30.36        
Nov 13 22:55 NNE 8 5 Clear   36 36     100% 29   30.35        
Nov 13 22:35 NNE 6 4 Clear   36 36     100% 31   30.36        
Nov 13 22:15 N 6 5 Clear   36 36     100% 31   30.37        
Nov 13 21:55 N 6 6 Clear   36 36     100% 31   30.36        
Nov 13 21:35 N 6 7 Clear   36 36     100% 31   30.35        
Nov 13 21:15 NNE 7 6 Clear   36 36     100% 30   30.35        
Nov 13 20:55 NE 7 5 Clear   36 36     100% 30   30.34        
Nov 13 20:35 NE 6 7 Clear   36 36     100% 31   30.33        
Nov 13 20:15 N 5 9 Clear   36 36     100% 32   30.35        
Nov 13 19:55 N 5 10 Clear   36 36     100% 32   30.35        
Nov 13 19:35 NNE 7 9 Clear   36 36     100% 30   30.35        
Nov 13 19:15 N 3 9 Clear   36 36     100% 33   30.35        
Nov 13 18:55 N 5 9 Clear   36 36     100% 32   30.34        
Nov 13 18:35 N 7 9 Clear   36 36     100% 30   30.34        
Nov 13 18:15 NNE 6 10 Clear   36 36     100% 31   30.31        
Nov 13 17:55 N 6 10 Clear   36 36     100% 31   30.31        
Nov 13 17:35 N 7 10 Clear   36 36     100% 30   30.31        
Nov 13 17:15 N 6 10 Clear   36 36     100% 31   30.3        
Nov 13 16:55 N 6 10 Clear   36 36     100% 31   30.29        
Nov 13 16:35 N 7 10 Clear   36 36     100% 30   30.29        
Nov 13 16:15 N 7 10 Clear   36 36     100% 30   30.28        
Nov 13 15:55 NNW 5 10 Clear   36 36     100% 32   30.27        
Nov 13 15:35 NNW 8 10 Clear   37 36     93% 31   30.27        
Nov 13 15:15 NNW 7 8 Clear   37 36     93% 32   30.26        
Nov 13 14:35 NNW 8 9 Clear   37 37     100% 31   30.26        
Nov 13 14:15 N 7 10 Clear   37 36     93% 32   30.25        
Nov 13 13:55 NNW 7 10 Clear   37 37     100% 32   30.23        
Nov 13 13:35 N 5 10 Clear   37 37     100% 34   30.24        
Nov 13 13:15 NNE 7 10 Clear   37 37     100% 32   30.24        
Nov 13 12:55 N 8 10 Clear   37 36     93% 31   30.24        
Nov 13 12:35 N 8 10 Clear   37 37     100% 31   30.24        
Nov 13 12:15 NNW 5 10 Clear   37 37     100% 34   30.25        
Nov 13 11:55 NNW 7 10 Clear   37 37     100% 32   30.25        
Nov 13 11:35 NNW 8 10 Clear   37 37     100% 31   30.24        
Nov 13 11:15 N 8 10 Clear   37 37     100% 31   30.24        
Nov 13 10:55 N 6 5 Clear   37 37     100% 33   30.23        
Nov 13 10:35 NNW 9 4 Clear   37 37     100% 31   30.23        
Nov 13 10:15 NNW 8 5 Clear   37 37     100% 31   30.22        
Nov 13 09:55 NW 6 3 Clear   37 37     100% 33   30.22        
Nov 13 09:35 NNW 6 2.5 Clear   37 37     100% 33   30.2        
Nov 13 09:15 NNW 5 2 Clear   37 37     100% 34   30.2        
Nov 13 08:55 NNW 3 3 Clear   37 37     100% 35   30.19        
Nov 13 08:35 N 6 2.5 Clear   37 37     100% 33   30.16        
Nov 13 08:15 N 7 5 Clear   37 37     100% 32   30.16        
Nov 13 07:55 N 7 4 Clear   37 37     100% 32   30.15        
Nov 13 07:35 N 7 2 Clear   37 37     100% 32   30.14        
Nov 13 07:15 N 5 2.5 Clear   39 39     100% 36   30.15        
Nov 13 06:55 NW 10 3 Clear   39 39     100% 32   30.14        
Nov 13 06:35 N 7 4 Clear   39 39     100% 34   30.12        
Nov 13 06:15 N 6 5 Clear   39 39     100% 35   30.11        
Nov 13 05:55 N 6 4 Clear   39 39     100% 35   30.11        
Nov 13 05:35 N 3 3 Clear   39 39     100% 37   30.09        
Nov 13 05:15 N 7 5 Clear   39 39     100% 34   30.09        
Nov 13 04:55 N 6 3 Clear   41 41     100% 37   30.09        
Nov 13 04:35 NNE 7 2.5 Clear   41 41     100% 36   30.08        
Nov 13 04:15 N 6 3 Clear   41 41     100% 37   30.08        
Nov 13 03:55 N 6 10 Clear   41 41     100% 37   30.08        
Nov 13 03:35 N 6 10 Clear   41 41     100% 37   30.08        
Nov 13 03:15 N 3 10 Clear   41 41     100% 39   30.08        
Nov 13 02:55 NNW 3 5 Clear   41 41     100% 39   30.08        
Nov 13 02:35 Calm 3 Clear   41 41     100%     30.07        
Nov 13 02:15 N 5 2.5 Clear   41 41     100% 38   30.07        
Nov 13 01:55 NNW 5 1.5 Clear   41 41     100% 38   30.07        
Nov 13 01:35 Calm 1.5 Clear   41 41     100%     30.08        
Nov 13 01:15 Calm 1 Clear   41 41     100%     30.08        
Nov 13 00:55 Calm 1.25 Clear   41 41     100%     30.08        
Nov 13 00:35 NNW 3 1.25 Clear   41 41     100% 39   30.07        
Nov 13 00:15 Calm 1 Clear   41 41     100%     30.07        
Nov 12 23:55 Calm 1.5 Clear   41 41     100%     30.07        
Nov 12 23:35 NNE 3 2.5 Clear   41 41     100% 39   30.08        
Nov 12 23:15 Calm 6 Clear   41 41     100%     30.08        
Nov 12 22:55 ENE 3 7 Clear   41 41     100% 39   30.08        
Nov 12 22:35 ENE 6 10 Clear   41 41     100% 37   30.08        
Nov 12 22:15 NE 6 10 Clear   41 41     100% 37   30.09        
Nov 12 21:55 NE 6 10 Clear   41 41     100% 37   30.1        
Nov 12 21:35 NNE 3 10 Clear   41 41     100% 39   30.11        
Nov 12 21:15 Calm 8 Clear   41 41     100%     30.11        
Nov 12 20:55 ENE 3 10 Clear   41 41     100% 39   30.1        
Nov 12 20:35 NNE 5 10 Clear   41 41     100% 38   30.1        
Nov 12 20:15 NE 3 10 Clear   41 41     100% 39   30.11        
Nov 12 19:55 Calm 10 Clear   41 41     100%     30.11        
Nov 12 19:35 Calm 9 Clear   41 41     100%     30.12        
Nov 12 19:15 Calm 10 Clear   41 41     100%     30.11        
Nov 12 18:55 N 5 10 Clear   41 41     100% 38   30.11        
Nov 12 18:35 NNE 3 10 Clear   41 41     100% 39   30.1        
Nov 12 18:15 NE 3 10 Clear   41 41     100% 39   30.09        
Nov 12 17:55 NNE 5 10 Clear   41 41     100% 38   30.09        
Nov 12 17:35 NNW 5 10 Clear   41 41     100% 38   30.09        
Nov 12 17:15 NE 3 10 Clear   41 41     100% 39   30.08        
Nov 12 16:55 E 3 10 Clear   41 41     100% 39   30.07        
Nov 12 16:35 NE 7 10 Clear   41 41     100% 36   30.09        
Nov 12 16:15 NNE 7 10 Clear   41 41     100% 36   30.1        
Nov 12 15:55 NNE 7 7 Clear   41 41     100% 36   30.1        
Nov 12 15:35 NNE 6 4 Clear   41 41     100% 37   30.12        
Nov 12 15:15 NE 5 3 Clear   41 41     100% 38   30.12        
Nov 12 14:55 Calm 2.5 Clear   39 39     100%     30.14        
Nov 12 14:35 Calm 2.5 Clear   39 39     100%     30.14        
Nov 12 14:15 Calm 3 Clear   39 39     100%     30.15        
Nov 12 13:55 Calm 2.5 Clear   39 39     100%     30.17        
Nov 12 13:35 Calm 2 Clear   39 39     100%     30.18        
Nov 12 13:15 Calm 3 Clear   41 41     100%     30.19        
Nov 12 12:55 Calm 3 Clear   41 41     100%     30.2        
Nov 12 12:35 Calm 3 Clear   41 41     100%     30.22        
Nov 12 12:15 Calm 3 Clear   41 39     93%     30.21        
Nov 12 11:55 Calm 4 Clear   41 39     93%     30.2        
Nov 12 11:35 Calm 3 Clear   41 39     93%     30.2        
Nov 12 11:15 ESE 3 8 Clear   41 37     87% 39   30.2        
Nov 12 10:55 ESE 5 8 Clear   41 39     93% 38   30.2        
Nov 12 10:35 ESE 6 6 Clear   41 37     87% 37   30.2        
Nov 12 10:15 SE 6 4 Clear   41 37     87% 37   30.23        
Nov 12 09:55 SE 3 7 Clear   41 36     81% 39   30.23        
Nov 12 09:35 Calm 9 Clear   41 36     81%     30.24        
Nov 12 09:15 Calm 9 Clear   41 36     81%     30.23        
Nov 12 08:55 Calm 10 Clear   41 34     75%     30.24        
Nov 12 08:35 SE 3 10 Clear   41 32     70% 39   30.24        
Nov 12 08:15 Calm 10 Clear   41 32     70%     30.24        
Nov 12 07:55 SE 3 10 Clear   41 32     70% 39   30.24        
Nov 12 07:35 SE 3 10 Clear   41 32     70% 39   30.25        
Nov 12 07:15 Calm 10 Clear   41 32     70%     30.25        
Nov 12 06:55 ESE 3 10 Clear   39 32     75% 37   30.25        
Nov 12 06:35 SE 6 10 Clear   41 32     70% 37   30.25        
Nov 12 06:15 ESE 6 10 Clear   39 32     75% 35   30.25        
Nov 12 05:55 SE 3 10 Clear   39 32     75% 37   30.26        
Nov 12 05:35 SE 3 10 Clear   39 32     75% 37   30.25        
Nov 12 05:15 SE 5 10 Clear   39 34     81% 36   30.25        
Nov 12 04:55 ESE 5 10 Clear   37 32     81% 34   30.26        
Nov 12 04:35 Calm 10 Clear   37 34     87%     30.25        
Nov 12 04:15 Calm 10 Clear   36 36     100%     30.26        
Nov 12 03:55 Calm 10 Clear   37 34     87%     30.25        
Nov 12 03:35 SE 3 10 Clear   37 34     87% 35   30.26        
Nov 12 03:15 Calm 10 Clear   36 34     93%     30.26        
Nov 12 02:55 Calm 10 Clear   36 34     93%     30.26        
Nov 12 02:35 Calm 10 Clear   36 34     93%     30.26        
Nov 12 02:15 Calm 10 Clear   37 32     81%     30.26        
Nov 12 01:55 Calm 10 Clear   37 32     81%     30.26        
Nov 12 01:35 Calm 10 Clear   37 32     81%     30.25        
Nov 12 01:15 Calm 10 Clear   37 32     81%     30.26        
Nov 12 00:55 Calm 10 Clear   37 32     81%     30.26        
Nov 12 00:35 Calm 10 Clear   37 32     81%     30.26        
Nov 12 00:15 Calm 10 Clear   36 34     93%     30.27        
Nov 11 23:55 Calm 10 Clear   39 32     75%     30.26        
Nov 11 23:35 Calm 10 Clear   37 32     81%     30.26        
Nov 11 23:15 SE 6 10 Clear   39 32     75% 35   30.25        
Nov 11 22:55 SE 3 10 Clear   39 32     75% 37   30.26        
Nov 11 22:35 SSE 6 10 Clear   39 32     75% 35   30.27        
Nov 11 22:15 Calm 10 Clear   41 32     70%     30.27        
Nov 11 21:55 SSE 5 10 Clear   43 30     61% 40   30.27        
Nov 11 21:35 SSE 3 10 Clear   41 30     65% 39   30.27        
Nov 11 21:15 SE 3 10 Clear   41 28     61% 39   30.26        
Nov 11 20:55 ESE 3 10 Clear   45 30     57% 43   30.27        
Nov 11 20:35 ESE 3 10 Clear   45 28     53% 43   30.27        
Nov 11 20:15 Calm 10 Clear   45 28     53%     30.27        
Nov 11 19:55 Calm 10 Clear   46 28     49%     30.27        
Nov 11 19:35 E 3 10 Clear   46 28     49% 45   30.27        
Nov 11 19:15 Calm 10 Clear   48 28     46%     30.28        
Nov 11 18:55 Calm 10 Clear   46 28     49%     30.27        
Nov 11 18:35 Calm 10 Clear   46 28     49%     30.26        
Nov 11 18:15 Calm 10 Clear   46 28     49%     30.26        
Nov 11 17:55 E 3 10 Clear   46 27     46% 45   30.26        
Nov 11 17:35 NE 5 10 Clear   48 28     46% 46   30.25        
Nov 11 17:15 Calm 10 Clear   48 28     46%     30.26        
Nov 11 16:55 N 5 10 Clear   48 27     43% 46   30.25        
Nov 11 16:35 N 3 10 Clear   50 27     40%     30.27        
Nov 11 16:15 NE 5 10 Clear   52 27     37%     30.26        
Nov 11 15:55 Calm 10 Clear   52 27     37%     30.26        
Nov 11 15:35 Calm 10 Clear   52 27     37%     30.26        
Nov 11 15:15 ENE 3 10 Clear   52 27     37%     30.25        
Nov 11 14:55 ENE 5 10 Clear   50 27     40%     30.24        
Nov 11 14:35 Calm 10 Clear   50 27     40%     30.25        
Nov 11 14:15 NNW 3 10 Clear   50 27     40%     30.27        
Nov 11 13:55 Calm 10 Clear   50 27     40%     30.28        
Nov 11 13:35 Calm 10 Clear   48 27     43%     30.28        
Nov 11 13:15 SSE 6 10 Clear   48 27     43% 46   30.29        
Nov 11 12:55 SSE 5 10 Clear   48 27     43% 46   30.3        
Nov 11 12:35 SE 3 10 Clear   46 25     42% 45   30.31        
Nov 11 12:15 Calm 10 Clear   45 25     45%     30.32        
Nov 11 11:55 Calm 10 Clear   45 25     45%     30.33        
Nov 11 11:35 SE 5 10 Clear   41 25     52% 38   30.34        
Nov 11 11:15 ESE 3 10 Clear   41 23     48% 39   30.34        
Nov 11 10:55 ESE 5 10 Clear   39 23     52% 36   30.34        
Nov 11 10:35 SE 8 10 Clear   37 25     60% 31   30.34        
Nov 11 10:15 SE 6 10 Clear   36 25     64% 31   30.35        
Nov 11 09:55 SE 6 10 Clear   32 25     74% 26   30.35        
Nov 11 09:35 Calm 10 Clear   32 25     74%     30.35        
Nov 11 09:15 ESE 3 10 Clear   30 25     80% 27   30.36        
Nov 11 08:55 E 3 10 Clear   28 25     86% 25   30.36        
Nov 11 08:35 Calm 10 Clear   27 25     93%     30.36        
Nov 11 08:15 Calm 10 Clear   25 25     100%     30.36        
Nov 11 07:55 SE 3 10 Clear   25 23     93% 20   30.36        
Nov 11 07:35 E 3 10 Clear   23 23     100% 18   30.35        
Nov 11 07:15 Calm 10 Clear   21 21     100%     30.35        
Nov 11 06:55 Calm 10 Clear   19 19     100%     30.35        
Nov 11 06:35 Calm 10 Clear   23 23     100%     30.34        
Nov 11 06:15 Calm 10 Clear   23 23     100%     30.34        
Nov 11 05:55 Calm 10 Clear   23 23     100%     30.33        
Nov 11 05:35 ESE 3 10 Clear   21 21     100% 16   30.33        
Nov 11 05:15 Calm 10 Clear   23 23     100%     30.33        
Nov 11 04:55 Calm 10 Clear   23 21     93%     30.32        
Nov 11 04:35 Calm 10 Clear   21 21     100%     30.32        
Nov 11 04:15 Calm 10 Clear   23 19     86%     30.32        
Nov 11 03:55 Calm 10 Clear   23 23     100%     30.33        
Nov 11 03:35 Calm 10 Clear   21 21     100%     30.33        
Nov 11 03:15 Calm 10 Clear   23 21     93%     30.32        
Nov 11 02:55 Calm 10 Clear   23 21     93%     30.32        
Nov 11 02:35 Calm 10 Clear   23 19     86%     30.32        
Nov 11 02:15 Calm 10 Clear   23 23     100%     30.32        
Nov 11 01:55 Calm 10 Clear   23 21     93%     30.32        
Nov 11 01:35 Calm 10 Clear   23 21     93%     30.32        
Nov 11 01:15 Calm 10 Clear   25 19     80%     30.32        
Nov 11 00:55 Calm 10 Clear   25 19     80%     30.32        
Nov 11 00:35 Calm 10 Clear   25 21     86%     30.32        
Nov 11 00:15 Calm 10 Clear   25 19     80%     30.32        
Nov 10 23:55 Calm 10 Clear   27 19     74%     30.33        
Nov 10 23:35 Calm 10 Clear   25 19     80%     30.33        
Nov 10 23:15 Calm 10 Clear   27 19     74%     30.33        
Nov 10 22:55 Calm 10 Clear   28 19     69%     30.34        
Nov 10 22:35 Calm 10 Clear   28 19     69%     30.34        
Nov 10 22:15 Calm 10 Clear   28 18     64%     30.34        
Nov 10 21:55 Calm 10 Clear   28 18     64%     30.34        
Nov 10 21:35 Calm 10 Clear   27 19     74%     30.35        
Nov 10 21:15 Calm 10 Clear   27 23     86%     30.35        
Nov 10 20:55 N 3 10 Clear   27 23     86% 23   30.35        
Nov 10 20:35 Calm 10 Clear   28 19     69%     30.35        
Nov 10 20:15 Calm 10 Clear   28 19     69%     30.34        
Nov 10 19:55 Calm 10 Clear   28 18     64%     30.35        
Nov 10 19:35 NNE 3 10 Clear   32 16     51% 29   30.34        
Nov 10 19:15 NNE 5 10 Clear   32 16     51% 27   30.34        
Nov 10 18:55 N 6 10 Clear   32 16     51% 26   30.34        
Nov 10 18:35 N 3 10 Clear   32 16     51% 29   30.33        
Nov 10 18:15 N 5 10 Clear   32 14     47% 27   30.33        
Nov 10 17:55 N 3 10 Clear   34 14     44% 31   30.33        
Nov 10 17:35 N 3 10 Clear   34 14     44% 31   30.33        
Nov 10 17:15 N 3 10 Clear   36 14     41% 33   30.33        
Nov 10 16:55 NNE 7 10 Clear   37 14     38% 32   30.33        
Nov 10 16:35 N 7 10 Clear   37 14     38% 32   30.33        
Nov 10 16:15 NNE 9 10 Clear   37 12     35% 31   30.33        
Nov 10 15:55 NNE 8 10 Clear   39 14     35% 34   30.33        
Nov 10 15:35 N 7 10 Clear   39 14     35% 34   30.33        
Nov 10 15:15 NNE 8 10 Clear   39 14     35% 34   30.34        
Nov 10 14:55 NNE 3 10 Clear   39 12     33% 37   30.35        
Nov 10 14:35 N 5 10 Clear   39 14     35% 36   30.35        
Nov 10 14:15 N 6 10 Clear   37 16     41% 33   30.35        
Nov 10 13:55 NNE 8 10 Clear   39 16     38% 34   30.35        
Nov 10 13:35 N 8 10 Clear   37 18     44% 31   30.35        
Nov 10 13:15 NNE 5 10 Clear   37 18     44% 34   30.36        
Nov 10 12:55 NNE 7 10 Clear   37 18     44% 32   30.37        
Nov 10 12:35 NNE 8 10 Clear   37 18     44% 31   30.38        
Nov 10 12:15 NW 8 10 Clear   37 18     44% 31   30.38        
Nov 10 11:55 NNW 8 10 Clear   36 18     48% 29   30.39        
Nov 10 11:35 NW 5 10 Clear   36 18     48% 32   30.39        
Nov 10 11:15 N 8 10 Clear   36 19     51% 29   30.4        
Nov 10 10:55 N 9 10 Clear   36 18     48% 29   30.4        
Nov 10 10:35 NNW 9 10 Clear   32 23     69% 24   30.39        
Nov 10 10:15 NW 7 10 Clear   32 23     69% 26   30.39        
Nov 10 09:55 NW 8 10 Clear   32 23     69% 25   30.39        
Nov 10 09:35 NW 10 10 Clear   32 23     69% 24   30.38        
Nov 10 09:15 NNW 8 10 Clear   32 25     74% 25   30.38        
Nov 10 08:55 NNW 7 10 Clear   32 25     74% 26   30.37        
Nov 10 08:35 NW 7 10 Clear   32 25     74% 26   30.36        
Nov 10 08:15 NW 3 10 Clear   30 25     80% 27   30.35        
Nov 10 07:55 WNW 6 10 Clear   30 25     80% 24   30.34        
Nov 10 07:35 WNW 5 10 Clear   32 25     74% 27   30.33        
Nov 10 07:15 W 7 10 Clear   32 25     74% 26   30.32        
Nov 10 06:55 WNW 7 10 Clear   32 25     74% 26   30.31        
Nov 10 06:35 WNW 7 10 Clear   32 25     74% 26   30.3        
Nov 10 06:15 WNW 6 10 Clear   32 27     80% 26   30.3        
Nov 10 05:55 W 8 10 Clear   32 27     80% 25   30.29        
Nov 10 05:35 W 5 10 Clear   32 27     80% 27   30.29        
Nov 10 05:15 Calm 10 Clear   32 27     80%     30.28        
Nov 10 04:55 WNW 5 10 Clear   32 27     80% 27   30.28        
Nov 10 04:35 WNW 3 10 Clear   32 28     86% 29   30.27        
Nov 10 04:15 W 3 10 Clear   32 27     80% 29   30.27        
Nov 10 03:55 WNW 5 10 Clear   32 28     86% 27   30.26        
Nov 10 03:35 W 3 10 Clear   32 27     80% 29   30.26        
Nov 10 03:15 W 5 10 Clear   32 28     86% 27   30.26        
Nov 10 02:55 Calm 10 Clear   32 28     86%     30.25        
Nov 10 02:35 Calm 10 Clear   34 28     80%     30.25        
Nov 10 02:15 Calm 10 Clear   34 27     75%     30.24        
Nov 10 01:55 NW 6 10 Clear   34 27     75% 29   30.24        
Nov 10 01:35 WNW 5 10 Clear   34 27     75% 30   30.24        
Nov 10 01:15 NW 3 10 Clear   34 27     75% 31   30.24        
Nov 10 00:55 WNW 6 10 Clear   34 27     75% 29   30.24        
Nov 10 00:35 WNW 7 10 Clear   34 27     75% 28   30.24        
Nov 10 00:15 WNW 9 10 Clear   36 28     75% 29   30.23        
Nov 09 23:55 WNW 10 10 Clear   36 28     75% 28   30.23        
Nov 09 23:35 WNW 7 10 Clear   36 32     87% 30   30.22        
Nov 09 23:15 WNW 9 10 Clear   37 34     87% 31   30.21        
Nov 09 22:55 WNW 9 10 Clear   37 36     93% 31   30.21        
Nov 09 22:35 WNW 8 10 Clear   37 36     93% 31   30.2        
Nov 09 22:15 WNW 5 10 Clear   37 36     93% 34   30.19        
Nov 09 21:55 WNW 5 10 Clear   37 37     100% 34   30.19        
Nov 09 21:35 WNW 7 10 Clear   39 37     93% 34   30.18        
Nov 09 21:15 W 6 10 Clear   39 37     93% 35   30.18        
Nov 09 20:55 W 5 10 Clear   39 37     93% 36   30.18        
Nov 09 20:35 WNW 8 10 Clear   39 39     100% 34   30.17        
Nov 09 20:15 W 7 10 Clear   39 39     100% 34   30.17        
Nov 09 19:55 W 3 10 Clear   39 39     100% 37   30.16        
Nov 09 19:35 Calm 10 Clear   39 39     100%     30.16        
Nov 09 19:15 Calm 10 Clear   39 39     100%     30.16        
Nov 09 18:55 Calm 10 Clear   39 39     100%     30.16        
Nov 09 18:35 Calm 10 Clear   39 39     100%     30.15        
Nov 09 18:15 Calm 10 Clear   39 39     100%     30.14        
Nov 09 17:55 Calm 10 Clear   39 39     100%     30.13        
Nov 09 17:35 NW 6 10 Clear   39 39     100% 35   30.13        
Nov 09 17:15 WNW 5 10 Clear   41 41     100% 38   30.12        
Nov 09 16:55 WNW 6 10 Clear   41 39     93% 37   30.12        
Nov 09 16:35 WNW 7 10 Clear   41 41     100% 36   30.11        
Nov 09 16:15 WNW 9 10 Clear   41 41     100% 35   30.1        
Nov 09 15:55 WNW 8 10 Clear   41 41     100% 36   30.09        
Nov 09 15:35 WNW 5 10 Clear   41 41     100% 38   30.09        
Nov 09 15:15 WNW 6 10 Clear   41 41     100% 37   30.08        
Nov 09 14:55 W 3 10 Clear   41 41     100% 39   30.08        
Nov 09 14:35 NW 3 9 Clear   43 43     100% 41   30.05        
Nov 09 14:15 Calm 3 Clear   43 43     100%     30.06        
Nov 09 13:55 WNW 5 2.5 Clear   43 43     100% 40   30.06        
Nov 09 13:35 WNW 6 2 Clear   43 43     100% 39   30.06        
Nov 09 13:15 NW 3 2 Clear   43 43     100% 41   30.05        
Nov 09 12:55 WNW 8 3 Clear   45 45     100% 40   30.05        
Nov 09 12:35 NW 3 2 Clear   45 45     100% 43   30.04        
Nov 09 12:15 WNW 3 3 Clear   46 46     100% 45   30.04        
Nov 09 11:55 WNW 6 1.75 Clear   46 46     100% 44   30.04        
Nov 09 11:35 Calm 3 Clear   46 46     100%     30.03        
Nov 09 11:15 W 3 3 Clear   46 46     100% 45   30.04        
Nov 09 10:55 Calm 3 Clear   46 46     100%     30.04        
Nov 09 10:35 WSW 3 3 Clear   45 45     100% 43   30.04        
Nov 09 10:15 SSE 3 2.5 Clear   45 45     100% 43   30.03        
Nov 09 09:55 Calm 3 Clear   45 45     100%     30.04        
Nov 09 09:35 Calm 2.5 Clear   45 45     100%     30.04        
Nov 09 09:15 Calm 2.5 Clear   45 45     100%     30.03        
Nov 09 08:55 W 5 3 Clear   45 45     100% 42   30.03        
Nov 09 08:35 NW 8 4 Clear   45 45     100% 40   29.99        
Nov 09 08:15 NW 6 2 Clear   46 46     100% 44   29.98        
Nov 09 07:55 Calm 2 Clear   46 46     100%     29.97        
Nov 09 07:35 Calm 3 Clear   46 46     100%     29.96        
Nov 09 07:15 Calm 9 Clear   46 46     100%     29.97        
Nov 09 06:55 Calm 1.75 Clear   46 46     100%     29.98        
Nov 09 06:35 Calm 3 Clear   46 46     100%     29.98        
Nov 09 06:15 Calm 5 Clear   46 46     100%     29.97        
Nov 09 05:55 NW 5 3 Clear   46 46     100% 44   29.98        
Nov 09 05:35 NW 3 5 Clear   46 46     100% 45   29.98        
Nov 09 05:15 Calm 10 Clear   48 48     100%     29.97        
Nov 09 04:55 Calm 9 Clear   48 48     100%     29.98        
Nov 09 04:35 WNW 3 10 Clear   48 48     100% 47   29.98        
Nov 09 04:15 Calm 7 Clear   50 48     93%     29.98        
Nov 09 03:55 Calm 10 Clear   54 48     82%     29.98        
Nov 09 03:35 SSE 5 10 Clear   52 46     82%     29.99        
Nov 09 03:15 SE 7 10 Clear   50 46     87%     29.99        
Nov 09 02:55 SE 6 10 Clear   50 45     82%     30        
Nov 09 02:35 Calm 10 Clear   48 41     76%     30.01        
Nov 09 02:15 Calm 10 Clear   48 41     76%     30.02        
Nov 09 01:55 Calm 10 Clear   48 41     76%     30.03        
Nov 09 01:35 Calm 10 Clear   48 41     76%     30.03        
Nov 09 01:15 Calm 10 Clear   46 41     81%     30.03        
Nov 09 00:55 Calm 10 Clear   46 41     81%     30.04        
Nov 09 00:35 Calm 10 Clear   48 41     76%     30.05        
Nov 09 00:15 Calm 10 Clear   48 39     71%     30.06        
Nov 08 23:55 NE 3 10 Clear   46 39     76% 45   30.07        
Nov 08 23:35 N 3 10 Clear   46 39     76% 45   30.08        
Nov 08 23:15 Calm 10 Clear   46 39     76%     30.08        
Nov 08 22:55 Calm 10 Clear   48 39     71%     30.1        
Nov 08 22:35 NNE 3 10 Clear   46 39     76% 45   30.1        
Nov 08 22:15 N 3 10 Clear   46 39     76% 45   30.11        
Nov 08 21:55 NE 3 10 Clear   46 39     76% 45   30.11        
Nov 08 21:35 NE 5 10 Clear   48 39     71% 46   30.12        
Nov 08 21:15 NE 6 10 Clear   48 39     71% 46   30.12        
Nov 08 20:55 Calm 9 Clear   48 39     71%     30.13        
Nov 08 20:35 NE 3 10 Clear   50 34     54%     30.14        
Nov 08 20:15 NNE 3 10 Clear   50 32     50%     30.14        
Nov 08 19:55 ENE 5 10 Clear   50 34     54%     30.14        
Nov 08 19:35 E 5 10 Clear   50 32     50%     30.14        
Nov 08 19:15 ENE 6 10 Clear   50 34     54%     30.15        
Nov 08 18:55 NE 8 10 Clear   50 34     54%     30.15        
Nov 08 18:35 NE 7 10 Clear   50 32     50%     30.16        
Nov 08 18:15 NE 8 10 Clear   50 32     50%     30.15        
Nov 08 17:55 NE 6 10 Clear   50 36     58%     30.15        
Nov 08 17:35 NNE 6 10 Clear   50 36     58%     30.16        
Nov 08 17:15 N 6 10 Clear   54 36     50%     30.16        
Nov 08 16:55 NNE 8 10 Clear   54 36     50%     30.16        
Nov 08 16:35 N 6 10 Clear   54 36     50%     30.16        
Nov 08 16:15 N 9 9 Clear   54 36     50%     30.16        
Nov 08 15:55 N 8 10 Clear   55 37     51%     30.16        
Nov 08 15:35 N 6 10 Clear   55 37     51%     30.16        
Nov 08 15:15 NNE 8 10 Clear   55 37     51%     30.16        
Nov 08 14:55 N 9 10 Clear   55 37     51%     30.17        
Nov 08 14:35 NNE 9 10 Clear   55 37     51%     30.17        
Nov 08 14:15 NE 12 10 Clear   57 37     47%     30.17        
Nov 08 13:55 N 9 10 Clear   57 37     47%     30.17        
Nov 08 13:35 NNE 6 10 Clear   57 39     51%     30.17        
Nov 08 13:15 N 9 10 Clear   55 39     54%     30.18        
Nov 08 12:55 NNE 10 10 Clear   54 41     62%     30.2        
Nov 08 12:35 N 9 10 Clear   54 41     62%     30.21        
Nov 08 12:15 NNE 9 10 Clear   54 39     58%     30.22        
Nov 08 11:55 NNE 7 10 Clear   52 41     67%     30.23        
Nov 08 11:35 NE 6 10 Clear   50 41     71%     30.24        
Nov 08 11:15 ENE 8 10 Clear   48 39     71% 45   30.25        
Nov 08 10:55 NNE 8 10 Clear   48 41     76% 45   30.26        
Nov 08 10:35 NNE 8 10 Clear   48 43     81% 45   30.25        
Nov 08 10:15 N 7 10 Clear   46 43     87% 43   30.25        
Nov 08 09:55 NE 8 10 Clear   45 43     93% 40   30.24        
Nov 08 09:35 NNE 7 10 Clear   45 43     93% 41   30.25        
Nov 08 09:15 NNE 6 10 Clear   43 41     93% 39   30.24        
Nov 08 08:55 NNE 6 10 Clear   43 41     93% 39   30.24        
Nov 08 08:35 NNE 6 10 Clear   41 41     100% 37   30.23        
Nov 08 08:15 N 5 10 Clear   41 41     100% 38   30.22        
Nov 08 07:55 N 5 10 Clear   39 39     100% 36   30.23        
Nov 08 07:35 N 6 9 Clear   39 39     100% 35   30.22        
Nov 08 07:15 NNW 3 10 Clear   37 37     100% 35   30.22        
Nov 08 06:55 N 5 9 Clear   37 37     100% 34   30.22        
Nov 08 06:35 Calm 9 Clear   37 37     100%     30.21        
Nov 08 06:15 Calm 9 Clear   37 37     100%     30.21        
Nov 08 05:55 Calm 10 Clear   39 39     100%     30.21        
Nov 08 05:35 NNE 5 10 Clear   39 39     100% 36   30.21        
Nov 08 05:15 Calm 10 Clear   39 39     100%     30.21        
Nov 08 04:55 NNW 5 9 Clear   39 39     100% 36   30.22        
Nov 08 04:35 Calm 10 Clear   39 39     100%     30.21        
Nov 08 04:15 NNW 3 10 Clear   39 39     100% 37   30.21        
Nov 08 03:55 NE 3 10 Clear   41 41     100% 39   30.2        
Nov 08 03:35 Calm 10 Clear   41 41     100%     30.21        
Nov 08 03:15 Calm 10 Clear   41 41     100%     30.2        
Nov 08 02:55 N 3 10 Clear   41 41     100% 39   30.2        
Nov 08 02:35 Calm 10 Clear   41 41     100%     30.2        
Nov 08 02:15 Calm 10 Clear   41 41     100%     30.19        
Nov 08 01:55 Calm 10 Clear   41 41     100%     30.18        
Nov 08 01:35 N 3 10 Clear   41 41     100% 39   30.18        
Nov 08 01:15 N 3 10 Clear   41 41     100% 39   30.19        
Nov 08 00:55 NNW 5 9 Clear   41 41     100% 38   30.19        
Nov 08 00:35 Calm 6 Clear   41 41     100%     30.2        
Nov 08 00:15 Calm 10 Clear   41 41     100%     30.2        
Nov 07 23:55 Calm 10 Clear   45 45     100%     30.18        
Nov 07 23:35 Calm 10 Clear   45 45     100%     30.19        
Nov 07 23:15 Calm 10 Clear   45 45     100%     30.18        
Nov 07 22:55 Calm 10 Clear   45 45     100%     30.18        
Nov 07 22:35 Calm 10 Clear   45 45     100%     30.18        
Nov 07 22:15 Calm 10 Clear   46 46     100%     30.18        
Nov 07 21:55 Calm 10 Clear   46 46     100%     30.19        
Nov 07 21:35 Calm 9 Clear   46 46     100%     30.18        
Nov 07 21:15 Calm 10 Clear   46 46     100%     30.18        
Nov 07 20:55 N 5 10 Clear   46 46     100% 44   30.17        
Nov 07 20:35 N 3 10 Clear   46 46     100% 45   30.18        
Nov 07 20:15 N 5 10 Clear   48 48     100% 46   30.17        
Nov 07 19:55 Calm 10 Clear   48 48     100%     30.18        
Nov 07 19:35 Calm 10 Clear   48 48     100%     30.18        
Nov 07 19:15 N 3 10 Clear   48 48     100% 47   30.18        
Nov 07 18:55 NNW 3 10 Clear   48 48     100% 47   30.17        
Nov 07 18:35 NNW 3 10 Clear   48 48     100% 47   30.17        
Nov 07 18:15 Calm 10 Clear   48 48     100%     30.16        
Nov 07 17:55 Calm 10 Clear   48 48     100%     30.15        
Nov 07 17:35 Calm 10 Clear   48 48     100%     30.15        
Nov 07 17:15 Calm 10 Clear   50 50     100%     30.15        
Nov 07 16:55 Calm 10 Clear   50 50     100%     30.15        
Nov 07 16:35 Calm 10 Clear   50 50     100%     30.15        
Nov 07 16:15 Calm 10 Clear   50 46     87%     30.15        
Nov 07 15:55 Calm 10 Clear   50 46     87%     30.16        
Nov 07 15:35 Calm 10 Clear   50 48     93%     30.16        
Nov 07 15:15 ESE 3 10 Clear   50 46     87%     30.15        
Nov 07 14:55 N 6 8 Clear   50 46     87%     30.15        
Nov 07 14:35 Calm 8 Clear   54 45     71%     30.16        
Nov 07 14:15 N 5 10 Clear   54 41     62%     30.15        
Nov 07 13:55 NNE 6 10 Clear   55 39     54%     30.15        
Nov 07 13:35 NNW 3 10 Clear   55 39     54%     30.16        
Nov 07 13:15 N 6 10 Clear   57 37     47%     30.15        
Nov 07 12:55 NNW 3 10 Clear   57 39     51%     30.16        
Nov 07 12:35 NNE 3 10 Clear   55 39     54%     30.15        
Nov 07 12:15 N 3 10 Clear   55 39     54%     30.18        
Nov 07 11:55 NNW 6 10 Clear   55 37     51%     30.19        
Nov 07 11:35 N 3 10 Clear   57 37     47%     30.19        
Nov 07 11:15 NNW 3 10 Clear   57 39     51%     30.19        
Nov 07 10:55 NNW 5 10 Clear   57 41     55%     30.19        
Nov 07 10:35 N 6 10 Clear   57 41     55%     30.19        
May 15 12:15 SSW 5 10 Clear   84 68     58%   87 30.01        
May 15 11:15 SSW 6 10 Clear   81 68     66%   83 30.02        
May 15 07:55 Calm 10 Clear   66 66     100%     30.02        
May 14 20:35 Calm 10 Clear   81 66     62%   83 29.97        
May 14 18:55 S 3 10 Clear   84 64     52%   86 29.98        
Notice The following observation data may not be complete
May 14 17:55   10 Clear            %              
May 14 12:35 N 3 10 Clear   82 64     55%   84 30.1        
May 13 23:35 Calm 10 Clear   68 64     88%     30.11        
May 13 21:35 Calm 10 Clear   75 61     61%   75 30.07        
May 13 20:35 WNW 5 10 Clear   79 61     54%   79 30.06        
May 13 13:55 W 6 10 Clear   84 61     45%   84 30.11        
May 13 09:15 Calm 9 Clear   66 64     94%     30.17        
May 13 08:15 Calm 9 Clear   61 61     100%     30.16        
May 13 02:35 Calm 8 Clear   59 59     100%     30.11        
May 12 16:55 WNW 8 10 Clear   84 57     40%   83 30.1        
May 12 11:55 WSW 7 10 Clear   81 59     48%   81 30.19        
May 12 09:55 SSW 6 10 Clear   75 63     65%   75 30.19        
May 12 03:55 Calm 10 Clear   63 63     100%     30.11        
May 12 01:15 SSE 7 10 Clear   64 63     94%     30.1        
May 11 22:15 Calm 10 Clear   72 59     65%   71 30.08        
May 11 14:35 SW 8 10 Clear   84 61     45%   84 30.09